Rockwall, TX

3:55 PM CST on December 09, 2019 (GMT -0600)
Rockwall

Weather History for KF46 - September, 2019

Change the Weather History Date:

Thursday, September 19, 2019

  Actual Average (WUND) Record (WUND)
Temperature  
Mean Temperature 76 °F -  
Max Temperature 80 °F - - (-1)
Min Temperature 72 °F - - (-1)
Cooling Degree Days 11    
Growing Degree Days 26 (Base 50)    
Moisture  
Dew Point 72 °F    
Average Humidity 91    
Maximum Humidity 100    
Minimum Humidity 72    
Precipitation  
Precipitation 0.01 in - - ()
Sea Level Pressure  
Sea Level Pressure 29.90 in    
Wind  
Wind Speed 6 mph ()    
Max Wind Speed 15 mph    
Max Gust Speed 21 mph    
Visibility 9.7 miles    
Events      
Averages and records for this station are not official NWS values.
T = Trace of Precipitation, MM = Missing Value Source: Averaged Metar Reports

Daily Weather History Graph

Daily Weather History Graph

Search for Another Location

Airport or City:

Astronomy

Sep. 19, 2019 Rise Set
Actual Time 7:11 AM CDT 7:26 PM CDT
Civil Twilight 6:47 AM CDT 7:51 PM CDT
Nautical Twilight 6:18 AM CDT 8:20 PM CDT
Astronomical Twilight 5:49 AM CDT 8:49 PM CDT
Moon 10:52 PM CDT (9/19) 12:01 PM CDT (9/19)
Length of Visible Light 13h 04m
Length of Day
12h 14m
Waning Gibbous, 74% of the Moon is Illuminated
Sep 19
Waning Gibbous
Sep 21
Last Quarter
Sep 28
New
Oct 5
First Quarter
Oct 13
Full

Hourly Weather History & Observations

Time (CDT) Temp. Heat Index Dew Point Humidity Pressure Visibility Wind Dir Wind Speed Gust Speed Precip Events Conditions
12:15 AM 74.7 °F - 73.4 °F 96% 29.92 in 10.0 mi East 3.5 mph - N/A   Clear
12:35 AM 74.3 °F - 73.4 °F 97% 29.91 in 10.0 mi Calm Calm - N/A   Clear
12:55 AM 74.1 °F - 72.9 °F 96% 29.91 in 10.0 mi ENE 4.6 mph - N/A   Clear
1:15 AM 73.9 °F - 72.9 °F 96% 29.91 in 10.0 mi North - - N/A   Clear
1:35 AM 73.6 °F - 72.9 °F 98% 29.91 in 10.0 mi East 4.6 mph - N/A   Clear
1:55 AM 73.4 °F - 72.7 °F 98% 29.92 in 10.0 mi East 3.5 mph - N/A   Clear
2:15 AM 73.4 °F - 72.9 °F 98% 29.91 in 10.0 mi East 3.5 mph - N/A   Clear
2:35 AM 73.4 °F - 73.0 °F 99% 29.91 in 10.0 mi East 3.5 mph - N/A   Mostly Cloudy
2:55 AM 73.8 °F - 73.4 °F 99% 29.90 in 10.0 mi ENE 4.6 mph - N/A   Overcast
3:15 AM 74.3 °F - 73.4 °F 97% 29.90 in 10.0 mi ENE 4.6 mph - N/A   Overcast
3:35 AM 73.8 °F - 73.2 °F 98% 29.89 in 10.0 mi NE 3.5 mph - N/A   Overcast
3:55 AM 73.4 °F - 73.0 °F 99% 29.89 in 10.0 mi ENE 3.5 mph - N/A   Mostly Cloudy
4:15 AM 73.4 °F - 72.9 °F 98% 29.89 in 10.0 mi ENE 4.6 mph - N/A   Scattered Clouds
4:35 AM 73.4 °F - 72.9 °F 98% 29.89 in 10.0 mi NE 4.6 mph - N/A   Clear
4:55 AM 73.0 °F - 72.9 °F 99% 29.89 in 10.0 mi ENE 5.8 mph - N/A   Scattered Clouds
5:15 AM 72.9 °F - 72.7 °F 99% 29.89 in 10.0 mi ENE 4.6 mph - N/A   Clear
5:35 AM 72.7 °F - 72.7 °F 100% 29.89 in 10.0 mi NE 6.9 mph - N/A   Clear
5:55 AM 73.0 °F - 72.9 °F 99% 29.90 in 10.0 mi NE 5.8 mph - N/A   Mostly Cloudy
6:15 AM 73.0 °F - 72.9 °F 99% 29.90 in 10.0 mi NE 6.9 mph - N/A   Overcast
6:35 AM 73.4 °F - 72.9 °F 98% 29.90 in 10.0 mi NNE 4.6 mph - N/A   Overcast
6:55 AM 73.4 °F - 73.4 °F 100% 29.90 in 10.0 mi NE 5.8 mph - N/A   Overcast
7:15 AM 73.4 °F - 73.4 °F 100% 29.91 in 10.0 mi NE 5.8 mph - N/A   Overcast
7:35 AM 73.6 °F - 73.6 °F 100% 29.91 in 10.0 mi NE 5.8 mph - N/A   Overcast
7:55 AM 73.6 °F - 73.6 °F 100% 29.91 in 10.0 mi NE 6.9 mph - N/A   Overcast
8:15 AM 74.1 °F - 73.6 °F 98% 29.91 in 10.0 mi NE 5.8 mph - N/A   Overcast
8:35 AM 74.3 °F - 73.8 °F 98% 29.91 in 10.0 mi NE 8.1 mph - N/A   Overcast
8:55 AM 74.3 °F - 73.8 °F 98% 29.92 in 10.0 mi NE 6.9 mph - N/A   Overcast
9:15 AM 73.8 °F - 73.8 °F 100% 29.92 in 7.0 mi ENE 8.1 mph - N/A   Overcast
9:35 AM 73.6 °F - 73.6 °F 100% 29.93 in 4.0 mi NE 6.9 mph - N/A   Overcast
9:55 AM 73.8 °F - 73.8 °F 100% 29.93 in 4.0 mi NE 9.2 mph - N/A   Overcast
10:15 AM 74.3 °F - 74.3 °F 100% 29.93 in 10.0 mi ENE 9.2 mph - N/A   Overcast
10:40 AM 76.3 °F - 73.6 °F 91% 29.93 in 10.0 mi ENE 9.2 mph - N/A   Overcast
10:55 AM 76.1 °F - 73.4 °F 91% 29.93 in 10.0 mi East 9.2 mph - N/A   Overcast
11:15 AM 76.6 °F - 73.6 °F 90% 29.93 in 7.0 mi ENE 9.2 mph - N/A   Overcast
11:35 AM 75.2 °F - 73.4 °F 94% 29.93 in 7.0 mi ENE 10.4 mph - N/A   Overcast
11:55 AM 75.9 °F - 73.2 °F 91% 29.93 in 10.0 mi ENE 6.9 mph - N/A   Overcast
12:15 PM 78.3 °F - 71.1 °F 78% 29.93 in 10.0 mi East 6.9 mph - N/A   Overcast
12:35 PM 79.0 °F - 71.1 °F 77% 29.93 in 10.0 mi ENE 8.1 mph - N/A   Overcast
12:55 PM 78.6 °F - 70.7 °F 77% 29.93 in 10.0 mi ENE 11.5 mph 16.1 mph N/A   Overcast
1:20 PM 78.3 °F - 70.5 °F 77% 29.92 in 10.0 mi East 11.5 mph - N/A   Overcast
1:35 PM 78.4 °F - 70.2 °F 76% 29.91 in 10.0 mi ENE 9.2 mph - N/A   Overcast
1:55 PM 79.3 °F - 69.8 °F 72% 29.91 in 10.0 mi East 10.4 mph - N/A   Overcast
2:15 PM 78.8 °F - 70.3 °F 75% 29.90 in 10.0 mi East 12.7 mph 20.7 mph N/A   Overcast
2:35 PM 78.4 °F - 70.3 °F 76% 29.90 in 10.0 mi East 13.8 mph - N/A   Overcast
2:55 PM 80.6 °F 84.4 °F 71.4 °F 73% 29.89 in 10.0 mi ENE 11.5 mph - N/A   Overcast
3:15 PM 78.1 °F - 70.2 °F 77% 29.89 in 10.0 mi East 11.5 mph - N/A   Overcast
3:35 PM 78.4 °F - 70.9 °F 77% 29.89 in 10.0 mi East 15.0 mph 19.6 mph N/A   Overcast
3:55 PM 75.7 °F - 71.1 °F 85% 29.89 in 10.0 mi East 6.9 mph - N/A   Overcast
4:15 PM 78.8 °F - 70.9 °F 77% 29.88 in 10.0 mi East 11.5 mph - N/A   Overcast
4:55 PM 77.0 °F - 70.5 °F 80% 29.88 in 10.0 mi East 10.4 mph 16.1 mph N/A   Overcast
5:15 PM 77.0 °F - 70.3 °F 80% 29.88 in 10.0 mi East 11.5 mph - N/A   Overcast
5:35 PM 76.5 °F - 70.0 °F 80% 29.88 in 10.0 mi East 8.1 mph 18.4 mph N/A   Overcast
5:55 PM 76.5 °F - 69.8 °F 80% 29.88 in 10.0 mi East 11.5 mph - N/A   Overcast
6:15 PM 75.2 °F - 70.5 °F 85% 29.88 in 10.0 mi East 6.9 mph - N/A   Overcast
6:35 PM 75.6 °F - 69.8 °F 82% 29.87 in 10.0 mi ESE 9.2 mph - N/A   Overcast
6:55 PM 75.4 °F - 70.0 °F 83% 29.87 in 10.0 mi East 11.5 mph 17.3 mph N/A   Overcast
7:15 PM 75.2 °F - 70.0 °F 84% 29.87 in 10.0 mi East 8.1 mph - N/A   Overcast
7:35 PM 74.8 °F - 70.0 °F 85% 29.87 in 10.0 mi ESE 9.2 mph - N/A   Overcast
7:55 PM 74.3 °F - 70.2 °F 87% 29.87 in 10.0 mi ESE 8.1 mph - N/A   Overcast
8:15 PM 73.6 °F - 70.7 °F 91% 29.87 in 10.0 mi ESE 5.8 mph - N/A   Mostly Cloudy
8:35 PM 73.8 °F - 70.5 °F 90% 29.87 in 10.0 mi ESE 6.9 mph - N/A   Mostly Cloudy
8:55 PM 73.8 °F - 70.3 °F 89% 29.87 in 10.0 mi ESE 6.9 mph - N/A   Overcast
9:15 PM 73.6 °F - 70.7 °F 91% 29.88 in 10.0 mi ESE 6.9 mph - N/A   Overcast
9:35 PM 73.4 °F - 71.1 °F 92% 29.89 in 10.0 mi ESE 6.9 mph - N/A   Overcast
9:55 PM 73.4 °F - 71.6 °F 94% 29.90 in 10.0 mi ESE 4.6 mph - N/A   Overcast
10:15 PM 73.4 °F - 72.1 °F 96% 29.90 in 10.0 mi SE 4.6 mph - N/A   Overcast
10:35 PM 73.4 °F - 72.5 °F 97% 29.91 in 10.0 mi SE 4.6 mph - N/A   Overcast
10:55 PM 73.4 °F - 72.5 °F 97% 29.92 in 10.0 mi ESE 3.5 mph - N/A   Overcast
11:15 PM 72.9 °F - 72.9 °F 100% 29.92 in 7.0 mi ESE 3.5 mph - 0.01 in   Drizzle
11:35 PM 72.5 °F - 72.5 °F 100% 29.92 in 10.0 mi Calm Calm - 0.01 in   Light Drizzle
11:55 PM 72.7 °F - 72.7 °F 100% 29.92 in 10.0 mi ESE 3.5 mph - 0.01 in   Overcast